Location: Observatory
(52.1446°N, 0.4624°W)
Time: 05:22:32
(UTC+01:00)

ISS - Pass Details

Date: 27 July 2021
Orbit: 419 x 421 km, 51.6° (Epoch: 03 August)

Event Time Altitude Azimuth Distance (km) Brightness Sun altitude
Rises 22:06:25 0° 282° (WNW) 2,375 1.1 -8.6°
Reaches altitude 10° 22:08:36 10° 274° (W) 1,508 -0.2 -8.8°
Maximum altitude 22:11:45 37° 206° (SSW) 669 -2.9 -9.2°
Enters shadow 22:14:20 14° 141° (SE) 1,284 -2.0 -9.4°
